McCall, ID

1:46 PM MST on December 18, 2017 (GMT -0700)
McCall

Weather History for KMYL - May, 2013

Change the Weather History Date:

Friday, May 24, 2013

  Actual Average Record
Temperature  
Mean Temperature 41 °F 48 °F  
Max Temperature 52 °F 61 °F 84 °F (2001)
Min Temperature 30 °F 35 °F 24 °F (1989)
Degree Days  
Heating Degree Days 24 17  
Month to date heating degree days 352 479  
Since 1 July heating degree days 8243 9114  
Cooling Degree Days 0 0  
Month to date cooling degree days 0 0  
Year to date cooling degree days 0 0  
Moisture  
Dew Point 28 °F    
Average Humidity 62    
Maximum Humidity 85    
Minimum Humidity 38    
Precipitation  
Precipitation 0.00 in 0.08 in 0.84 in (1962)
Month to date precipitation 0.85 1.69  
Year to date precipitation 8.47 9.28  
Sea Level Pressure  
Sea Level Pressure 29.97 in    
Wind  
Wind Speed 6 mph (SW)    
Max Wind Speed 20 mph    
Max Gust Speed 26 mph    
Visibility 10 miles    
Events      
T = Trace of Precipitation, MM = Missing Value Source: NWS Daily Summary

Daily Weather History Graph

Daily Weather History Graph

Search for Another Location

Airport or City:

Trip Planner

Search our weather history database for the weather conditions in past years. The results will help you decide how hot, cold, wet, or windy it might be!

Date:

Astronomy

May. 24, 2013 Rise Set
Actual Time 6:06 AM MDT 9:16 PM MDT
Civil Twilight 5:31 AM MDT 9:51 PM MDT
Nautical Twilight 4:45 AM MDT 10:37 PM MDT
Astronomical Twilight 3:50 AM MDT 11:33 PM MDT
Moon 9:02 PM MDT (5/24) 5:44 AM MDT (5/24)
Length of Visible Light 16h 20m
Length of Day
15h 09m
Full, 100% of the Moon is Illuminated
May 24
Full
May 24
Full
May 31
Last Quarter
Jun 8
New
Jun 16
First Quarter

Hourly Weather History & Observations

Time (MDT) Temp. Windchill Dew Point Humidity Pressure Visibility Wind Dir Wind Speed Gust Speed Precip Events Conditions
12:51 AM 36.0 °F 33.3 °F 27.0 °F 70% 29.94 in 10.0 mi NE 3.5 mph - N/A   Clear
1:51 AM 34.0 °F - 27.0 °F 75% 29.96 in 10.0 mi Calm Calm - N/A   Mostly Cloudy
2:51 AM 34.0 °F - 27.0 °F 75% 29.95 in 10.0 mi Calm Calm - N/A   Partly Cloudy
3:51 AM 30.9 °F - 26.1 °F 82% 29.95 in 10.0 mi Calm Calm - N/A   Clear
4:51 AM 30.9 °F 25.2 °F 26.1 °F 82% 29.95 in 10.0 mi NE 5.8 mph - N/A   Mostly Cloudy
5:51 AM 32.0 °F - 28.0 °F 85% 29.94 in 10.0 mi Calm Calm - N/A   Partly Cloudy
6:51 AM 33.1 °F - 28.0 °F 82% 29.96 in 10.0 mi Calm Calm - N/A   Overcast
7:51 AM 36.0 °F 33.3 °F 28.9 °F 76% 29.97 in 10.0 mi Variable 3.5 mph - N/A   Overcast
8:51 AM 37.9 °F - 30.0 °F 73% 29.98 in 10.0 mi Calm Calm - N/A   Overcast
9:51 AM 39.9 °F 34.5 °F 28.9 °F 65% 29.99 in 10.0 mi South 8.1 mph - N/A   Overcast
10:51 AM 43.0 °F 37.7 °F 28.9 °F 58% 29.97 in 10.0 mi South 9.2 mph - N/A   Overcast
11:51 AM 43.0 °F 40.3 °F 28.9 °F 58% 29.99 in 10.0 mi SSW 4.6 mph - N/A   Overcast
12:51 PM 43.0 °F 35.1 °F 30.0 °F 60% 30.02 in 10.0 mi SW 17.3 mph 26.5 mph N/A   Overcast
1:51 PM 46.0 °F 41.9 °F 28.9 °F 51% 30.00 in 10.0 mi SW 8.1 mph 17.3 mph N/A   Overcast
2:51 PM 48.9 °F - 28.0 °F 44% 29.99 in 10.0 mi South 10.4 mph - N/A   Overcast
3:51 PM 50.0 °F - 27.0 °F 41% 29.99 in 10.0 mi SSW 11.5 mph 19.6 mph N/A   Overcast
4:51 PM 51.1 °F - 27.0 °F 39% 29.98 in 10.0 mi SSW 18.4 mph 23.0 mph N/A   Overcast
5:51 PM 51.1 °F - 27.0 °F 39% 29.97 in 10.0 mi South 11.5 mph - N/A   Overcast
6:51 PM 51.1 °F - 27.0 °F 39% 29.96 in 10.0 mi SSW 3.5 mph - N/A   Overcast
7:51 PM 50.0 °F - 26.1 °F 39% 29.96 in 10.0 mi WSW 6.9 mph - N/A   Mostly Cloudy
8:51 PM 48.9 °F - 30.9 °F 50% 29.96 in 10.0 mi NNW 5.8 mph - N/A   Mostly Cloudy
9:51 PM 46.0 °F 42.5 °F 30.9 °F 56% 29.97 in 10.0 mi NW 6.9 mph - N/A   Mostly Cloudy
10:51 PM 45.0 °F 40.6 °F 33.1 °F 63% 29.98 in 10.0 mi North 8.1 mph - N/A   Mostly Cloudy
11:51 PM 43.0 °F 37.7 °F 33.1 °F 68% 29.98 in 10.0 mi North 9.2 mph - N/A   Partly Cloudy